Flag for Belgium Weather past 2 weeks in Charleroi, Belgium

Now
45 °F

Sunny.


Feels Like: 41 °F
Forecast: 42 / 61 °F
Wind: 6 mph from Northeast

Location: Charleroi / Gosselies

Current Time: Apr 21, 2015 at 8:40:41 AM

Latest Report: Apr 21, 2015 at 7:50 AM


Visibility: 10 mi

Pressure: 30.45 "Hg

Humidity: 81%

Dew point: 39 °F

Location of CharleroiLocation

Historic Weather in Charleroi — Graph

°F

Charleroi temperature yesterday

Maximum temperature yesterday: 64 °F (at 3:20 PM)
Minimum temperature yesterday: 39 °F (at 5:20 AM)
Average temperature yesterday: 53 °F

Past Weeks' High & Low Weather Summary

 TemperatureHumidityPressure
High75 °F (Apr 15, 3:50 PM)100% (Apr 7, 4:50 AM)30.66 "Hg (Apr 7, 4:50 AM)
Low34 °F (Apr 6, 7:20 AM)19% (Apr 10, 3:50 PM)29.89 "Hg (Apr 16, 7:50 PM)
Average51 °F65%30.27 "Hg
* Reported Apr 6 7:20 AM — Apr 21 7:20 AM, Charleroi, Weather by CustomWeather, © 2015

Note: Actual official high and low records may vary slightly from our data, if they occured in-between our weather recording intervals... More about our weather records

Advertising

Charleroi weather history for previous 24 hours

 ConditionsComfort  
Time TempWeatherWind HumidityBarometerVisibility
7:20 AM
Tue, Apr 21
45 °FClear.6 mph81%30.42 "Hg10 mi
6:50 AM45 °FClear.7 mph87%30.42 "Hg10 mi
6:20 AM43 °FClear.7 mph87%30.42 "Hg10 mi
5:50 AM43 °FClear.6 mph87%30.42 "Hg10 mi
5:20 AM45 °FClear.5 mph81%30.42 "Hg10 mi
4:50 AM45 °FPassing clouds.5 mph81%30.42 "HgN/A
4:20 AM46 °FClear.5 mph82%30.42 "Hg10 mi
3:50 AM46 °FClear.7 mph82%30.42 "Hg10 mi
3:20 AM46 °FClear.7 mph82%30.42 "Hg10 mi
2:50 AM46 °FPassing clouds.5 mph82%30.42 "HgN/A
2:20 AM48 °FPassing clouds.3 mph76%30.39 "HgN/A
1:50 AM48 °FPassing clouds.3 mph76%30.39 "HgN/A
1:20 AM50 °FClear.6 mph67%30.39 "Hg10 mi
12:50 AM50 °FClear.5 mph62%30.39 "Hg10 mi
12:20 AM50 °FClear.6 mph67%30.39 "Hg10 mi
11:50 PM
Mon, Apr 20
52 °FClear.7 mph58%30.39 "Hg10 mi
11:20 PM52 °FClear.6 mph50%30.39 "Hg10 mi
10:50 PM52 °FPassing clouds.5 mph50%30.39 "HgN/A
10:20 PM54 °FClear.7 mph47%30.36 "Hg10 mi
9:50 PM55 °FClear.7 mph47%30.36 "Hg10 mi
9:20 PM57 °FPassing clouds.7 mph44%30.36 "HgN/A
8:50 PM57 °FSunny.8 mph44%30.36 "Hg10 mi
8:20 PM59 °FSunny.9 mph42%30.33 "Hg10 mi
7:50 PM61 °FSunny.10 mph36%30.33 "Hg10 mi
7:20 PM63 °FSunny.12 mph34%30.33 "Hg10 mi
6:50 PM63 °FSunny.12 mph34%30.33 "Hg10 mi
6:20 PM64 °FSunny.14 mph32%30.33 "Hg10 mi
5:50 PM64 °FPassing clouds.13 mph32%30.33 "HgN/A
5:20 PM64 °FSunny.15 mph32%30.33 "Hg10 mi
4:50 PM64 °FPassing clouds.13 mph34%30.33 "HgN/A
4:20 PM64 °FPassing clouds.13 mph34%30.33 "HgN/A
3:50 PM64 °FPassing clouds.13 mph37%30.33 "HgN/A
3:20 PM64 °FPassing clouds.10 mph32%30.36 "HgN/A
2:50 PM63 °FPassing clouds.12 mph37%30.36 "HgN/A
2:20 PM63 °FPassing clouds.14 mph37%30.36 "HgN/A
1:50 PM61 °FPassing clouds.14 mph36%30.36 "HgN/A
1:20 PM63 °FPassing clouds.13 mph37%30.36 "HgN/A
12:50 PM61 °FPassing clouds.12 mph42%30.36 "HgN/A
12:20 PM59 °FPassing clouds.12 mph51%30.36 "HgN/A
11:50 AM59 °FSunny.10 mph51%30.36 "Hg10 mi
11:20 AM57 °FSunny.10 mph59%30.33 "Hg10 mi
10:50 AM55 °FSunny.7 mph55%30.33 "Hg10 mi
10:20 AM54 °FPassing clouds.6 mph58%30.33 "HgN/A
9:50 AM52 °FClear.6 mph58%30.33 "Hg6 mi
9:20 AM48 °FClear.5 mph71%30.30 "Hg6 mi
8:50 AM48 °FClear.5 mph71%30.30 "Hg6 mi
8:20 AM46 °FClear.5 mph76%30.30 "Hg6 mi
Weather by CustomWeather, © 2015

See weather overviewHow to use our weather pages